1575846054,2019-12-09 00:00,52.65,981.29,1007.07,214,7.95,-1.13,-16,1
1575846114,2019-12-09 00:01,51.80,981.26,1007.04,214,7.95,-1.35,-16,1
1575846174,2019-12-09 00:02,52.48,981.23,1007.01,214,7.91,-1.21,-16,1
1575846235,2019-12-09 00:03,52.98,981.26,1007.04,214,7.94,-1.05,-19,1
1575846295,2019-12-09 00:04,52.29,981.27,1007.05,214,7.92,-1.25,-19,1
1575846355,2019-12-09 00:05,52.50,981.20,1006.98,214,7.89,-1.22,-18,1
1575846415,2019-12-09 00:06,52.93,981.22,1007.00,214,7.81,-1.19,-17,1
1575846475,2019-12-09 00:07,53.99,981.27,1007.06,214,7.83,-0.90,-15,1
1575846535,2019-12-09 00:08,53.04,981.19,1006.97,214,7.81,-1.16,-16,1
1575846595,2019-12-09 00:09,53.29,981.28,1007.07,214,7.79,-1.11,-18,1
1575846655,2019-12-09 00:10,53.14,981.29,1007.08,214,7.78,-1.16,-17,1
1575846715,2019-12-09 00:11,54.69,981.22,1007.00,214,7.69,-0.85,-17,1
1575846775,2019-12-09 00:12,53.70,981.28,1007.07,214,7.74,-1.06,-17,1
1575846835,2019-12-09 00:13,53.81,981.26,1007.04,214,7.60,-1.16,-21,1
1575846896,2019-12-09 00:14,53.78,981.17,1006.95,214,7.71,-1.06,-16,1
1575846956,2019-12-09 00:15,54.04,981.23,1007.01,214,7.64,-1.06,-18,1
1575847016,2019-12-09 00:16,54.28,981.11,1006.90,214,7.62,-1.02,-17,1
1575847076,2019-12-09 00:17,53.73,981.22,1007.00,214,7.64,-1.14,-19,1
1575847136,2019-12-09 00:18,53.54,981.20,1006.99,214,7.62,-1.21,-14,1
1575847196,2019-12-09 00:19,53.46,981.16,1006.94,214,7.63,-1.22,-18,1
1575847256,2019-12-09 00:20,53.60,981.15,1006.93,214,7.65,-1.16,-16,1
1575847316,2019-12-09 00:21,53.39,981.08,1006.87,214,7.64,-1.23,-17,1
1575847376,2019-12-09 00:22,53.19,981.08,1006.87,214,7.62,-1.30,-15,1
1575847436,2019-12-09 00:23,53.91,981.11,1006.89,214,7.65,-1.09,-19,1
1575847496,2019-12-09 00:24,53.60,981.12,1006.91,214,7.63,-1.18,-16,1
1575847556,2019-12-09 00:25,53.41,981.09,1006.87,214,7.61,-1.25,-17,1
1575847617,2019-12-09 00:26,53.29,981.15,1006.93,214,7.65,-1.24,-17,1
1575847677,2019-12-09 00:27,53.34,981.12,1006.90,214,7.66,-1.22,-17,1
1575847737,2019-12-09 00:28,54.25,981.14,1006.93,214,7.65,-1.00,-17,1
1575847800,2019-12-09 00:30,54.05,981.14,1006.92,214,7.66,-1.04,-18,1
1575847860,2019-12-09 00:31,53.73,981.15,1006.94,214,7.67,-1.11,-18,1
1575847920,2019-12-09 00:32,53.71,981.13,1006.91,214,7.64,-1.15,-18,1
1575847980,2019-12-09 00:33,53.71,981.11,1006.90,214,7.63,-1.16,-14,1
1575848041,2019-12-09 00:34,53.80,981.15,1006.94,214,7.65,-1.11,-21,1
1575848101,2019-12-09 00:35,53.58,981.13,1006.91,214,7.64,-1.18,-16,1
1575848161,2019-12-09 00:36,53.36,981.12,1006.90,214,7.63,-1.24,-18,1
1575848222,2019-12-09 00:37,54.45,981.03,1006.81,214,7.63,-0.97,-17,1
1575848282,2019-12-09 00:38,54.37,981.06,1006.84,214,7.57,-1.05,-19,1
1575848342,2019-12-09 00:39,53.70,980.89,1006.67,214,7.62,-1.17,-15,1
1575848402,2019-12-09 00:40,53.58,980.99,1006.78,214,7.58,-1.23,-17,1
1575848463,2019-12-09 00:41,54.12,980.97,1006.76,214,7.60,-1.08,-17,1
1575848523,2019-12-09 00:42,53.96,980.87,1006.65,214,7.62,-1.10,-17,1
1575848583,2019-12-09 00:43,53.76,981.00,1006.78,214,7.60,-1.17,-18,1
1575848644,2019-12-09 00:44,53.52,980.97,1006.75,214,7.54,-1.29,-17,1
1575848704,2019-12-09 00:45,53.75,980.90,1006.69,214,7.46,-1.30,-17,1
1575848764,2019-12-09 00:46,53.14,980.76,1006.55,214,7.62,-1.31,-19,1
1575848824,2019-12-09 00:47,52.83,980.91,1006.69,214,7.65,-1.36,-17,1
1575848885,2019-12-09 00:48,52.59,980.88,1006.66,214,7.72,-1.36,-18,1
1575848945,2019-12-09 00:49,52.47,980.86,1006.65,214,7.75,-1.36,-18,1
1575849005,2019-12-09 00:50,52.40,980.84,1006.62,214,7.83,-1.31,-16,1
1575849066,2019-12-09 00:51,52.24,980.74,1006.52,214,7.84,-1.34,-18,1
1575849126,2019-12-09 00:52,52.06,980.83,1006.61,214,7.97,-1.27,-16,1
1575849186,2019-12-09 00:53,52.04,980.83,1006.62,214,7.98,-1.26,-19,1
1575849246,2019-12-09 00:54,51.67,980.77,1006.55,214,8.03,-1.31,-17,1
1575849307,2019-12-09 00:55,51.71,980.79,1006.57,214,8.14,-1.20,-17,1
1575849367,2019-12-09 00:56,51.52,980.78,1006.57,214,8.20,-1.19,-18,1
1575849427,2019-12-09 00:57,51.12,980.70,1006.48,214,8.27,-1.24,-19,1
1575849488,2019-12-09 00:58,50.46,980.72,1006.50,214,8.32,-1.37,-18,1
1575849548,2019-12-09 00:59,50.86,980.66,1006.45,214,8.40,-1.19,-19,1
1575849608,2019-12-09 01:00,50.44,980.71,1006.49,214,8.42,-1.28,-17,1
1575849668,2019-12-09 01:01,49.62,980.71,1006.49,214,8.54,-1.39,-16,1
1575849729,2019-12-09 01:02,50.11,980.74,1006.52,214,8.63,-1.17,-16,1
1575849789,2019-12-09 01:03,49.67,980.73,1006.51,214,8.69,-1.24,-19,1
1575849849,2019-12-09 01:04,48.84,980.75,1006.54,214,8.76,-1.40,-17,1
1575849909,2019-12-09 01:05,48.81,980.78,1006.56,214,8.80,-1.37,-16,1
1575849970,2019-12-09 01:06,48.67,980.69,1006.48,214,8.76,-1.45,-16,1
1575850030,2019-12-09 01:07,48.96,980.78,1006.56,214,8.91,-1.23,-17,1
1575850090,2019-12-09 01:08,48.67,980.79,1006.57,214,8.90,-1.32,-15,1
1575850151,2019-12-09 01:09,48.86,980.68,1006.46,214,8.97,-1.21,-18,1
1575850211,2019-12-09 01:10,49.14,980.71,1006.50,214,8.97,-1.13,-17,1
1575850271,2019-12-09 01:11,49.33,980.66,1006.44,214,9.04,-1.01,-16,1
1575850331,2019-12-09 01:12,48.69,980.64,1006.42,214,9.03,-1.20,-17,1
1575850392,2019-12-09 01:13,48.87,980.65,1006.44,214,9.04,-1.14,-18,1
1575850452,2019-12-09 01:14,48.59,980.66,1006.44,214,9.06,-1.20,-18,1
1575850512,2019-12-09 01:15,48.71,980.71,1006.50,214,9.09,-1.14,-20,1
1575850573,2019-12-09 01:16,48.57,980.72,1006.50,214,9.09,-1.18,-18,1
1575850633,2019-12-09 01:17,48.51,980.64,1006.42,214,9.05,-1.23,-19,1
1575850693,2019-12-09 01:18,48.80,980.60,1006.39,214,9.01,-1.18,-17,1
1575850753,2019-12-09 01:19,48.97,980.65,1006.43,214,9.02,-1.13,-20,1
1575850814,2019-12-09 01:20,48.86,980.71,1006.49,214,9.07,-1.11,-19,1
1575850874,2019-12-09 01:21,48.94,980.66,1006.44,214,9.04,-1.12,-18,1
1575850934,2019-12-09 01:22,48.61,980.70,1006.49,214,9.06,-1.19,-16,1
1575850994,2019-12-09 01:23,48.56,980.66,1006.44,214,9.08,-1.19,-15,1
1575851055,2019-12-09 01:24,48.49,980.65,1006.43,214,9.09,-1.20,-18,1
1575851115,2019-12-09 01:25,49.14,980.69,1006.48,214,9.11,-1.00,-16,1
1575851175,2019-12-09 01:26,48.69,980.71,1006.49,214,9.11,-1.12,-19,1
1575851236,2019-12-09 01:27,48.64,980.70,1006.48,214,9.11,-1.14,-17,1
1575851296,2019-12-09 01:28,48.59,980.67,1006.45,214,9.09,-1.17,-19,1
1575851356,2019-12-09 01:29,48.65,980.64,1006.42,214,9.10,-1.14,-16,1
1575851416,2019-12-09 01:30,48.77,980.69,1006.47,214,9.11,-1.10,-18,1
1575851477,2019-12-09 01:31,48.87,980.71,1006.49,214,9.12,-1.06,-17,1
1575851537,2019-12-09 01:32,48.53,980.73,1006.51,214,9.13,-1.15,-19,1
1575851597,2019-12-09 01:33,48.79,980.75,1006.53,214,9.13,-1.08,-21,1
1575851658,2019-12-09 01:34,48.67,980.65,1006.43,214,9.08,-1.16,-19,1
1575851718,2019-12-09 01:35,48.42,980.76,1006.54,214,9.13,-1.18,-17,1
1575851778,2019-12-09 01:36,49.18,980.79,1006.58,214,9.18,-0.92,-17,1
1575851838,2019-12-09 01:37,49.08,980.81,1006.59,214,9.17,-0.96,-18,1
1575851899,2019-12-09 01:38,48.49,980.83,1006.61,214,9.18,-1.12,-18,1
1575851959,2019-12-09 01:39,48.83,980.79,1006.57,214,9.19,-1.01,-18,1
1575852019,2019-12-09 01:40,49.64,980.78,1006.56,214,9.19,-0.79,-18,1
1575852080,2019-12-09 01:41,48.51,980.81,1006.59,214,9.19,-1.10,-15,1
1575852140,2019-12-09 01:42,48.66,980.76,1006.54,214,9.19,-1.06,-18,1
1575852200,2019-12-09 01:43,48.63,980.68,1006.46,214,9.18,-1.08,-19,1
1575852260,2019-12-09 01:44,48.87,980.74,1006.53,214,9.22,-0.97,-20,1
1575852321,2019-12-09 01:45,49.42,980.71,1006.49,214,9.19,-0.85,-15,1
1575852381,2019-12-09 01:46,48.06,980.74,1006.53,214,9.14,-1.27,-19,1
1575852441,2019-12-09 01:47,48.22,980.74,1006.53,214,9.23,-1.15,-18,1
1575852502,2019-12-09 01:48,49.20,980.71,1006.49,214,9.20,-0.90,-15,1
1575852562,2019-12-09 01:49,48.45,980.75,1006.53,214,9.24,-1.07,-19,1
1575852622,2019-12-09 01:50,48.58,980.72,1006.50,214,9.21,-1.06,-18,1
1575852682,2019-12-09 01:51,48.97,980.79,1006.58,214,9.29,-0.88,-18,1
1575852743,2019-12-09 01:52,48.35,980.83,1006.61,214,9.30,-1.04,-18,1
1575852803,2019-12-09 01:53,48.41,980.83,1006.61,214,9.30,-1.03,-19,1
1575852863,2019-12-09 01:54,48.58,980.86,1006.65,214,9.33,-0.95,-17,1
1575852924,2019-12-09 01:55,48.22,980.82,1006.61,214,9.29,-1.09,-18,1
1575852984,2019-12-09 01:56,48.12,980.85,1006.63,214,9.35,-1.06,-19,1
1575853044,2019-12-09 01:57,48.46,980.81,1006.60,214,9.34,-0.98,-19,1
1575853104,2019-12-09 01:58,48.39,980.82,1006.60,214,9.36,-0.98,-18,1
1575853165,2019-12-09 01:59,48.21,980.92,1006.70,214,9.37,-1.02,-16,1
1575853225,2019-12-09 02:00,48.00,980.88,1006.67,214,9.37,-1.08,-18,1
1575853285,2019-12-09 02:01,47.83,980.83,1006.62,214,9.35,-1.15,-18,1
1575853346,2019-12-09 02:02,47.52,980.80,1006.58,214,9.34,-1.24,-18,1
1575853406,2019-12-09 02:03,48.19,980.78,1006.57,214,9.37,-1.02,-16,1
1575853466,2019-12-09 02:04,48.35,980.80,1006.58,214,9.38,-0.97,-19,1
1575853526,2019-12-09 02:05,48.44,980.81,1006.59,214,9.40,-0.93,-18,1
1575853587,2019-12-09 02:06,48.09,980.69,1006.48,214,9.39,-1.03,-18,1
1575853647,2019-12-09 02:07,47.71,980.78,1006.56,214,9.40,-1.14,-18,1
1575853707,2019-12-09 02:08,47.67,980.74,1006.53,214,9.41,-1.14,-16,1
1575853768,2019-12-09 02:09,47.54,980.82,1006.60,214,9.42,-1.16,-18,1
1575853828,2019-12-09 02:10,48.37,980.71,1006.50,214,9.43,-0.92,-19,1
1575853888,2019-12-09 02:11,48.06,980.78,1006.56,214,9.42,-1.02,-17,1
1575853948,2019-12-09 02:12,47.71,980.72,1006.51,214,9.40,-1.13,-18,1
1575854009,2019-12-09 02:13,48.21,980.75,1006.53,214,9.43,-0.96,-17,1
1575854069,2019-12-09 02:14,47.70,980.72,1006.50,214,9.42,-1.12,-18,1
1575854129,2019-12-09 02:15,48.19,980.69,1006.47,214,9.42,-0.98,-20,1
1575854189,2019-12-09 02:16,48.01,980.69,1006.47,214,9.37,-1.08,-19,1
1575854250,2019-12-09 02:17,48.30,980.74,1006.53,214,9.44,-0.93,-17,1
1575854310,2019-12-09 02:18,47.94,980.75,1006.53,214,9.42,-1.05,-18,1
1575854370,2019-12-09 02:19,47.79,980.73,1006.52,214,9.42,-1.09,-18,1
1575854431,2019-12-09 02:20,47.91,980.76,1006.54,214,9.35,-1.12,-17,1
1575854491,2019-12-09 02:21,49.04,980.78,1006.56,214,9.40,-0.76,-19,1
1575854551,2019-12-09 02:22,49.03,980.80,1006.59,214,9.40,-0.76,-18,1
1575854612,2019-12-09 02:23,48.54,980.79,1006.57,214,9.39,-0.91,-20,1
1575854672,2019-12-09 02:24,48.33,980.85,1006.64,214,9.34,-1.01,-16,1
1575854732,2019-12-09 02:25,48.37,980.84,1006.62,214,9.39,-0.96,-18,1
1575854792,2019-12-09 02:26,48.11,980.86,1006.65,214,9.38,-1.04,-17,1
1575854853,2019-12-09 02:27,48.15,980.87,1006.65,214,9.38,-1.03,-20,1
1575854913,2019-12-09 02:28,49.13,980.79,1006.58,214,9.38,-0.75,-17,1
1575854973,2019-12-09 02:29,49.15,980.87,1006.65,214,9.37,-0.76,-19,1
1575855033,2019-12-09 02:30,48.43,980.86,1006.64,214,9.37,-0.96,-18,1
1575855094,2019-12-09 02:31,48.22,980.75,1006.54,214,9.35,-1.04,-17,1
1575855154,2019-12-09 02:32,49.87,980.82,1006.60,214,9.32,-0.60,-18,1
1575855214,2019-12-09 02:33,48.76,980.84,1006.62,214,9.35,-0.88,-18,1
1575855275,2019-12-09 02:34,49.25,980.81,1006.59,214,9.33,-0.76,-18,1
1575855335,2019-12-09 02:35,49.02,980.78,1006.56,214,9.35,-0.81,-19,1
1575855395,2019-12-09 02:36,48.67,980.79,1006.57,214,9.33,-0.93,-18,1
1575855455,2019-12-09 02:37,48.63,980.76,1006.54,214,9.35,-0.92,-18,1
1575855516,2019-12-09 02:38,49.07,980.73,1006.51,214,9.34,-0.81,-20,1
1575855576,2019-12-09 02:39,49.54,980.71,1006.49,214,9.33,-0.68,-19,1
1575855636,2019-12-09 02:40,49.80,980.58,1006.36,214,9.33,-0.61,-19,1
1575855697,2019-12-09 02:41,50.12,980.66,1006.45,214,9.33,-0.53,-17,1
1575855757,2019-12-09 02:42,49.57,980.63,1006.42,214,9.29,-0.71,-16,1
1575855817,2019-12-09 02:43,49.28,980.60,1006.38,214,9.32,-0.77,-16,1
1575855877,2019-12-09 02:44,49.37,980.51,1006.30,214,9.31,-0.75,-17,1
1575855938,2019-12-09 02:45,52.51,980.54,1006.33,214,9.32,0.11,-20,1
1575855998,2019-12-09 02:46,50.43,980.59,1006.37,214,9.27,-0.49,-19,1
1575856058,2019-12-09 02:47,49.95,980.53,1006.31,214,9.32,-0.58,-17,1
1575856119,2019-12-09 02:48,53.49,980.61,1006.40,214,9.29,0.33,-17,1
1575856179,2019-12-09 02:49,52.83,980.60,1006.38,214,9.26,0.14,-18,1
1575856239,2019-12-09 02:50,51.90,980.53,1006.31,214,9.28,-0.09,-15,1
1575856299,2019-12-09 02:51,52.67,980.53,1006.32,214,9.29,0.12,-18,1
1575856360,2019-12-09 02:52,51.52,980.51,1006.30,214,9.27,-0.20,-16,1
1575856420,2019-12-09 02:53,52.72,980.51,1006.29,214,9.28,0.12,-20,1
1575856480,2019-12-09 02:54,52.88,980.48,1006.26,214,9.27,0.16,-19,1
1575856540,2019-12-09 02:55,53.07,980.46,1006.24,214,9.26,0.20,-17,1
1575856601,2019-12-09 02:56,53.43,980.53,1006.31,214,9.25,0.28,-16,1
1575856661,2019-12-09 02:57,55.06,980.55,1006.33,214,9.24,0.69,-17,1
1575856721,2019-12-09 02:58,53.00,980.55,1006.34,214,9.20,0.12,-20,1
1575856782,2019-12-09 02:59,53.05,980.45,1006.23,214,9.22,0.15,-19,1
1575856842,2019-12-09 03:00,53.08,980.43,1006.21,214,9.20,0.14,-17,1
1575856902,2019-12-09 03:01,55.09,980.39,1006.17,214,9.19,0.65,-19,1
1575856962,2019-12-09 03:02,55.47,980.47,1006.26,214,9.17,0.72,-16,1
1575857023,2019-12-09 03:03,54.75,980.42,1006.21,214,9.18,0.55,-18,1
1575857083,2019-12-09 03:04,55.04,980.38,1006.17,214,9.20,0.65,-18,1
1575857143,2019-12-09 03:05,55.38,980.46,1006.24,214,9.18,0.71,-17,1
1575857204,2019-12-09 03:06,56.40,980.37,1006.16,214,9.17,0.96,-16,1
1575857264,2019-12-09 03:07,56.42,980.32,1006.10,214,9.13,0.92,-16,1
1575857324,2019-12-09 03:08,56.19,980.38,1006.16,214,9.14,0.88,-18,1
1575857384,2019-12-09 03:09,54.49,980.39,1006.17,214,9.11,0.42,-17,1
1575857445,2019-12-09 03:10,57.08,980.43,1006.21,214,9.10,1.06,-18,1
1575857505,2019-12-09 03:11,55.55,980.44,1006.22,214,9.10,0.68,-17,1
1575857565,2019-12-09 03:12,55.85,980.42,1006.20,214,9.09,0.74,-15,1
1575857626,2019-12-09 03:13,55.82,980.37,1006.16,214,9.07,0.72,-18,1
1575857686,2019-12-09 03:14,55.56,980.41,1006.19,214,9.09,0.67,-18,1
1575857746,2019-12-09 03:15,58.96,980.44,1006.23,214,9.05,1.46,-16,1
1575857806,2019-12-09 03:16,57.89,980.52,1006.30,214,9.02,1.18,-17,1
1575857867,2019-12-09 03:17,55.83,980.51,1006.29,214,9.07,0.72,-16,1
1575857927,2019-12-09 03:18,56.04,980.52,1006.31,214,9.07,0.77,-19,1
1575857987,2019-12-09 03:19,57.15,980.45,1006.23,214,9.10,1.07,-17,1
1575858047,2019-12-09 03:20,56.19,980.51,1006.29,214,9.09,0.83,-16,1
1575858108,2019-12-09 03:21,54.84,980.45,1006.23,214,9.09,0.49,-17,1
1575858168,2019-12-09 03:22,56.19,980.47,1006.25,214,9.08,0.82,-17,1
1575858228,2019-12-09 03:23,56.34,980.47,1006.25,214,9.07,0.85,-19,1
1575858289,2019-12-09 03:24,56.98,980.49,1006.27,214,9.03,0.97,-17,1
1575858349,2019-12-09 03:25,55.12,980.51,1006.30,214,9.06,0.53,-17,1
1575858409,2019-12-09 03:26,55.17,980.53,1006.32,214,9.05,0.54,-16,1
1575858469,2019-12-09 03:27,56.22,980.45,1006.23,214,9.07,0.82,-18,1
1575858530,2019-12-09 03:28,57.46,980.45,1006.23,214,9.06,1.11,-19,1
1575858590,2019-12-09 03:29,56.61,980.40,1006.18,214,9.05,0.90,-17,1
1575858650,2019-12-09 03:30,56.71,980.34,1006.12,214,9.07,0.94,-19,1
1575858710,2019-12-09 03:31,55.84,980.28,1006.07,214,9.07,0.72,-19,1
1575858771,2019-12-09 03:32,57.05,980.29,1006.07,214,9.07,1.02,-17,1
1575858831,2019-12-09 03:33,57.82,980.27,1006.06,214,9.07,1.21,-17,1
1575858891,2019-12-09 03:34,56.28,980.32,1006.10,214,9.06,0.82,-15,1
1575858952,2019-12-09 03:35,56.75,980.28,1006.06,214,9.09,0.97,-16,1
1575859012,2019-12-09 03:36,56.00,980.34,1006.13,214,9.09,0.78,-17,1
1575859072,2019-12-09 03:37,56.14,980.32,1006.10,214,9.10,0.83,-19,1
1575859132,2019-12-09 03:38,57.93,980.30,1006.08,214,9.10,1.26,-16,1
1575859192,2019-12-09 03:39,57.18,980.26,1006.04,214,9.10,1.08,-17,1
1575859252,2019-12-09 03:40,58.18,980.28,1006.06,214,9.07,1.29,-16,1
1575859312,2019-12-09 03:41,58.74,980.23,1006.01,214,9.09,1.45,-17,1
1575859373,2019-12-09 03:42,58.57,980.17,1005.95,214,9.08,1.40,-16,1
1575859433,2019-12-09 03:43,57.85,980.24,1006.03,214,9.07,1.22,-18,1
1575859493,2019-12-09 03:44,57.69,980.20,1005.98,214,9.08,1.18,-19,1
1575859553,2019-12-09 03:45,58.20,980.30,1006.08,214,9.06,1.29,-16,1
1575859613,2019-12-09 03:46,57.84,980.33,1006.12,214,9.05,1.19,-16,1
1575859673,2019-12-09 03:47,56.72,980.35,1006.13,214,9.08,0.95,-18,1
1575859733,2019-12-09 03:48,57.50,980.28,1006.06,214,9.07,1.13,-15,1
1575859793,2019-12-09 03:49,56.80,980.36,1006.15,214,9.08,0.97,-14,1
1575859853,2019-12-09 03:50,56.99,980.36,1006.14,214,9.05,0.99,-16,1
1575859913,2019-12-09 03:51,58.56,980.36,1006.14,214,9.04,1.36,-16,1
1575859973,2019-12-09 03:52,59.57,980.33,1006.11,214,9.10,1.65,-17,1
1575860033,2019-12-09 03:53,59.25,980.32,1006.10,214,9.08,1.56,-17,1
1575860094,2019-12-09 03:54,58.04,980.34,1006.12,214,9.09,1.28,-19,1
1575860154,2019-12-09 03:55,58.77,980.39,1006.17,214,9.09,1.45,-19,1
1575860214,2019-12-09 03:56,57.89,980.43,1006.21,214,9.09,1.24,-17,1
1575860274,2019-12-09 03:57,55.98,980.27,1006.05,214,9.10,0.79,-16,1
1575860334,2019-12-09 03:58,57.21,980.38,1006.16,214,9.09,1.08,-17,1
1575860394,2019-12-09 03:59,58.27,980.33,1006.11,214,9.08,1.33,-18,1
1575860454,2019-12-09 04:00,58.29,980.27,1006.05,214,9.06,1.31,-18,1
1575860514,2019-12-09 04:01,58.02,980.23,1006.01,214,9.09,1.28,-14,1
1575860574,2019-12-09 04:02,58.02,980.29,1006.08,214,9.09,1.27,-17,1
1575860634,2019-12-09 04:03,58.42,980.30,1006.09,214,9.06,1.34,-18,1
1575860694,2019-12-09 04:04,58.25,980.33,1006.11,214,9.05,1.29,-15,1
1575860754,2019-12-09 04:05,58.81,980.36,1006.14,214,9.06,1.44,-19,1
1575860815,2019-12-09 04:06,57.93,980.22,1006.00,214,9.06,1.22,-16,1
1575860875,2019-12-09 04:07,57.16,980.36,1006.14,214,9.06,1.04,-16,1
1575860935,2019-12-09 04:08,56.00,980.30,1006.08,214,9.08,0.77,-17,1
1575860995,2019-12-09 04:09,58.01,980.38,1006.16,214,9.09,1.27,-17,1
1575861055,2019-12-09 04:10,57.42,980.35,1006.13,214,9.11,1.15,-17,1
1575861115,2019-12-09 04:11,59.32,980.32,1006.10,214,9.11,1.60,-18,1
1575861175,2019-12-09 04:12,59.67,980.29,1006.08,214,9.11,1.68,-15,1
1575861235,2019-12-09 04:13,59.59,980.28,1006.07,214,9.10,1.66,-16,1
1575861295,2019-12-09 04:14,59.42,980.33,1006.11,214,9.07,1.59,-17,1
1575861355,2019-12-09 04:15,59.46,980.34,1006.12,214,9.08,1.61,-16,1
1575861415,2019-12-09 04:16,59.26,980.28,1006.07,214,9.05,1.53,-17,1
1575861476,2019-12-09 04:17,59.73,980.20,1005.98,214,9.04,1.63,-15,1
1575861536,2019-12-09 04:18,59.60,980.35,1006.13,214,9.03,1.59,-15,1
1575861596,2019-12-09 04:19,59.36,980.38,1006.17,214,9.00,1.51,-17,1
1575861656,2019-12-09 04:20,58.37,980.41,1006.19,214,9.01,1.28,-16,1
1575861716,2019-12-09 04:21,59.52,980.37,1006.15,214,9.04,1.58,-17,1
1575861776,2019-12-09 04:22,57.79,980.36,1006.14,214,9.03,1.16,-17,1
1575861836,2019-12-09 04:23,60.40,980.37,1006.15,214,9.01,1.76,-16,1
1575861896,2019-12-09 04:24,59.61,980.42,1006.20,214,8.99,1.56,-16,1
1575861956,2019-12-09 04:25,60.60,980.44,1006.22,214,9.02,1.82,-16,1
1575862016,2019-12-09 04:26,60.16,980.49,1006.27,214,9.03,1.72,-18,1
1575862076,2019-12-09 04:27,60.07,980.50,1006.28,214,9.00,1.68,-19,1
1575862136,2019-12-09 04:28,60.66,980.47,1006.25,214,8.97,1.78,-16,1
1575862197,2019-12-09 04:29,60.08,980.41,1006.19,214,9.01,1.69,-15,1
1575862257,2019-12-09 04:30,60.47,980.35,1006.13,214,9.00,1.77,-17,1
1575862317,2019-12-09 04:31,60.49,980.39,1006.18,214,9.01,1.78,-17,1
1575862377,2019-12-09 04:32,60.58,980.41,1006.19,214,9.02,1.81,-15,1
1575862437,2019-12-09 04:33,60.66,980.39,1006.17,214,9.00,1.81,-18,1
1575862560,2019-12-09 04:36,60.89,980.46,1006.25,214,8.96,1.83,-14,1
1575862620,2019-12-09 04:37,61.26,980.44,1006.22,214,9.00,1.95,-16,1
1575862681,2019-12-09 04:38,60.17,980.46,1006.24,214,8.97,1.67,-17,1
1575862741,2019-12-09 04:39,61.51,980.48,1006.26,214,8.96,1.97,-18,1
1575862801,2019-12-09 04:40,62.93,980.48,1006.27,214,8.99,2.32,-16,1
1575862862,2019-12-09 04:41,62.33,980.51,1006.30,214,8.97,2.16,-19,1
1575862922,2019-12-09 04:42,61.81,980.49,1006.27,214,8.98,2.06,-17,1
1575862982,2019-12-09 04:43,62.66,980.52,1006.31,214,8.97,2.24,-19,1
1575863042,2019-12-09 04:44,61.75,980.55,1006.33,214,8.96,2.02,-17,1
1575863103,2019-12-09 04:45,62.02,980.52,1006.30,214,8.96,2.08,-16,1
1575863163,2019-12-09 04:46,61.23,980.42,1006.20,214,8.98,1.92,-19,1
1575863223,2019-12-09 04:47,59.89,980.34,1006.13,214,8.97,1.60,-18,1
1575863284,2019-12-09 04:48,60.29,980.34,1006.12,214,8.99,1.72,-16,1
1575863344,2019-12-09 04:49,59.24,980.24,1006.02,214,9.00,1.48,-17,1
1575863404,2019-12-09 04:50,60.43,980.32,1006.10,214,9.00,1.76,-19,1
1575863464,2019-12-09 04:51,61.10,980.32,1006.11,214,8.99,1.90,-19,1
1575863525,2019-12-09 04:52,59.74,980.29,1006.08,214,9.01,1.61,-16,1
1575863585,2019-12-09 04:53,58.57,980.31,1006.09,214,8.99,1.31,-17,1
1575863645,2019-12-09 04:54,60.07,980.26,1006.04,214,9.00,1.67,-17,1
1575863706,2019-12-09 04:55,59.88,980.26,1006.04,214,9.02,1.65,-16,1
1575863766,2019-12-09 04:56,59.44,980.34,1006.12,214,9.01,1.54,-19,1
1575863826,2019-12-09 04:57,60.59,980.39,1006.17,214,8.93,1.73,-15,1
1575863886,2019-12-09 04:58,59.81,980.44,1006.22,214,8.96,1.58,-18,1
1575863947,2019-12-09 04:59,59.80,980.54,1006.32,214,8.92,1.54,-17,1
1575864007,2019-12-09 05:00,59.90,980.49,1006.28,214,8.92,1.56,-19,1
1575864067,2019-12-09 05:01,59.75,980.57,1006.36,214,8.88,1.49,-19,1
1575864127,2019-12-09 05:02,59.90,980.48,1006.27,214,8.90,1.54,-16,1
1575864188,2019-12-09 05:03,60.02,980.45,1006.23,214,8.85,1.52,-19,1
1575864248,2019-12-09 05:04,60.80,980.49,1006.28,214,8.86,1.71,-17,1
1575864308,2019-12-09 05:05,61.01,980.52,1006.31,214,8.85,1.75,-16,1
1575864369,2019-12-09 05:06,61.17,980.55,1006.33,214,8.85,1.78,-17,1
1575864429,2019-12-09 05:07,61.44,980.49,1006.27,214,8.83,1.83,-15,1
1575864489,2019-12-09 05:08,61.09,980.54,1006.32,214,8.86,1.78,-16,1
1575864549,2019-12-09 05:09,61.12,980.59,1006.37,214,8.81,1.74,-19,1
1575864610,2019-12-09 05:10,61.18,980.55,1006.33,214,8.83,1.77,-18,1
1575864670,2019-12-09 05:11,60.70,980.58,1006.36,214,8.83,1.66,-18,1
1575864730,2019-12-09 05:12,61.05,980.58,1006.36,214,8.82,1.73,-16,1
1575864790,2019-12-09 05:13,61.96,980.54,1006.32,214,8.82,1.94,-17,1
1575864851,2019-12-09 05:14,61.33,980.59,1006.37,214,8.76,1.74,-17,1
1575864911,2019-12-09 05:15,62.01,980.57,1006.35,214,8.82,1.95,-17,1
1575864971,2019-12-09 05:16,62.12,980.58,1006.37,214,8.81,1.96,-17,1
1575865032,2019-12-09 05:17,61.45,980.55,1006.34,214,8.85,1.85,-15,1
1575865092,2019-12-09 05:18,61.15,980.57,1006.35,214,8.83,1.76,-18,1
1575865152,2019-12-09 05:19,62.30,980.56,1006.34,214,8.80,2.00,-20,1
1575865212,2019-12-09 05:20,61.22,980.50,1006.28,214,8.79,1.74,-19,1
1575865273,2019-12-09 05:21,61.90,980.40,1006.19,214,8.82,1.92,-17,1
1575865333,2019-12-09 05:22,62.19,980.48,1006.26,214,8.82,1.99,-16,1
1575865393,2019-12-09 05:23,62.31,980.51,1006.29,214,8.74,1.94,-19,1
1575865454,2019-12-09 05:24,62.16,980.56,1006.34,214,8.79,1.95,-15,1
1575865514,2019-12-09 05:25,61.64,980.56,1006.34,214,8.81,1.86,-16,1
1575865574,2019-12-09 05:26,61.00,980.64,1006.42,214,8.82,1.72,-16,1
1575865634,2019-12-09 05:27,61.29,980.54,1006.32,214,8.82,1.78,-17,1
1575865695,2019-12-09 05:28,62.15,980.51,1006.30,214,8.84,2.00,-20,1
1575865755,2019-12-09 05:29,62.94,980.57,1006.35,214,8.82,2.16,-17,1
1575865815,2019-12-09 05:30,62.22,980.56,1006.35,214,8.82,2.00,-17,1
1575865875,2019-12-09 05:31,62.25,980.56,1006.35,214,8.81,1.99,-16,1
1575865936,2019-12-09 05:32,61.76,980.61,1006.39,214,8.78,1.85,-16,1
1575865996,2019-12-09 05:33,61.55,980.57,1006.35,214,8.77,1.80,-20,1
1575866056,2019-12-09 05:34,62.31,980.47,1006.25,214,8.78,1.98,-19,1
1575866117,2019-12-09 05:35,62.32,980.59,1006.37,214,8.78,1.98,-17,1
1575866177,2019-12-09 05:36,61.69,980.67,1006.46,214,8.79,1.85,-20,1
1575866237,2019-12-09 05:37,61.47,980.68,1006.46,214,8.78,1.79,-19,1
1575866297,2019-12-09 05:38,60.90,980.68,1006.46,214,8.80,1.68,-17,1
1575866358,2019-12-09 05:39,62.88,980.62,1006.40,214,8.78,2.10,-18,1
1575866418,2019-12-09 05:40,62.75,980.69,1006.47,214,8.82,2.11,-17,1
1575866478,2019-12-09 05:41,62.19,980.73,1006.51,214,8.78,1.95,-19,1
1575866538,2019-12-09 05:42,62.52,980.71,1006.49,214,8.79,2.03,-16,1
1575866599,2019-12-09 05:43,62.98,980.71,1006.49,214,8.79,2.14,-17,1
1575866659,2019-12-09 05:44,62.59,980.69,1006.47,214,8.79,2.05,-18,1
1575866719,2019-12-09 05:45,61.88,980.71,1006.49,214,8.81,1.91,-20,1
1575866780,2019-12-09 05:46,62.03,980.69,1006.47,214,8.82,1.95,-15,1
1575866840,2019-12-09 05:47,62.59,980.71,1006.50,214,8.81,2.07,-19,1